Capri, Italy

3:59 AM CEST on March 30, 2017 (GMT +0200)
Capri

Weather History for LIQC - July, 2013

Change the Weather History Date:

Wednesday, July 17, 2013

  Actual Average (LIRN) Record (LIRN)
Temperature  
Mean Temperature 83 °F -  
Max Temperature 93 °F 84 °F 98 °F (2015)
Min Temperature 73 °F 67 °F 59 °F (2000)
Cooling Degree Days 18    
Growing Degree Days 33 (Base 50)    
Moisture  
Dew Point 69 °F    
Average Humidity 64    
Maximum Humidity 100    
Minimum Humidity 40    
Precipitation  
Precipitation 0.00 in - - ()
Sea Level Pressure  
Sea Level Pressure 30.08 in    
Wind  
Wind Speed 1 mph ()    
Max Wind Speed 6 mph    
Max Gust Speed -    
Visibility 12.0 miles    
Events      
Averages and records for this station are not official NWS values.
T = Trace of Precipitation, MM = Missing Value Source: Averaged Metar Reports

Daily Weather History Graph

Daily Weather History Graph

Search for Another Location

Airport or City:

Trip Planner

Search our weather history database for the weather conditions in past years. The results will help you decide how hot, cold, wet, or windy it might be!

Date:

Astronomy

Jul. 17, 2013 Rise Set
Actual Time 5:46 AM CEST 8:31 PM CEST
Civil Twilight 5:14 AM CEST 9:03 PM CEST
Nautical Twilight 4:34 AM CEST 9:43 PM CEST
Astronomical Twilight 3:48 AM CEST 10:29 PM CEST
Moon 3:00 PM CEST (7/17) 12:43 AM CEST (7/17)
Length of Visible Light 15h 48m
Length of Day
14h 44m
Waxing Gibbous, 64% of the Moon is Illuminated
Jul 17
Waxing Gibbous
Jul 22
Full
Jul 29
Last Quarter
Aug 6
New
Aug 14
First Quarter

Hourly Weather History & Observations

Time (CEST) Temp. Heat Index Dew Point Humidity Pressure Visibility Wind Dir Wind Speed Gust Speed Precip Events Conditions
12:55 AM 77.0 °F - 64.4 °F 65% 30.09 in - North - - N/A   Clear
2:00 AM 75 °F - 70 °F 80% 30.09 in 12 mi 1.2 mph - -  
3:55 AM 75.2 °F - 64.4 °F 69% 30.09 in - North - - N/A   Clear
4:55 AM 75.2 °F - 64.4 °F 69% 30.09 in - North - - N/A   Clear
5:00 AM 75 °F - 64 °F 62% 30.08 in 12 mi Calm Calm - -  
6:55 AM 73.4 °F - 66.2 °F 78% 30.09 in - North - - N/A   Clear
7:55 AM 77.0 °F - 62.6 °F 61% 30.09 in - North - - N/A   Clear
8:00 AM 76 °F - 62 °F 52% 30.09 in 12 mi 3.5 mph - -  
8:55 AM 77.0 °F - 64.4 °F 65% 30.09 in - North - - N/A   Clear
9:55 AM 78.8 °F - 62.6 °F 57% 30.09 in - North - - N/A   Clear
10:55 AM 82.4 °F 82.9 °F 60.8 °F 48% 30.09 in - North - - N/A   Clear
11:00 AM 82 °F - 62 °F 40% 30.09 in 12 mi 4.5 mph - -  
11:55 AM 82.4 °F 83.4 °F 62.6 °F 51% 30.09 in - North - - N/A   Clear
12:55 PM 86.0 °F 86.6 °F 62.6 °F 45% 30.09 in - North - - N/A   Clear
1:55 PM 91.4 °F 96.8 °F 69.8 °F 49% 30.09 in - North - - N/A   Clear
2:00 PM 91 °F - 70 °F 41% 30.07 in 12 mi Calm Calm - -  
2:55 PM 93.2 °F 98.8 °F 69.8 °F 46% 30.09 in - North - - N/A   Clear
3:55 PM 93.2 °F 100.5 °F 71.6 °F 49% 30.09 in - North - - N/A   Clear
4:55 PM 91.4 °F 100.1 °F 73.4 °F 55% 30.06 in - North - - N/A   Clear
6:55 PM 89.6 °F 102.2 °F 77.0 °F 66% 30.06 in - North - - N/A   Clear
7:55 PM 87.8 °F 102.5 °F 78.8 °F 75% 30.06 in - North - - N/A   Clear
8:00 PM 87 °F - 79 °F 72% 30.05 in 12 mi Calm Calm - -  
8:55 PM 80.6 °F 86.2 °F 75.2 °F 84% 30.06 in - North - - N/A   Clear
9:55 PM 77.0 °F - 75.2 °F 94% 30.06 in - North - - N/A   Clear
10:55 PM 75.2 °F - 75.2 °F 100% 30.09 in - North - - N/A   Clear
11:00 PM 75 °F - 75 °F 99% 30.08 in 12 mi 5.8 mph - -